Orbital Elements at Epoch 2459000.5 (2020-May-31.0) TDB
Reference: JPL 39 (heliocentric ecliptic J2000)
Element | Value | Uncertainty (1-sigma) | Units |
e | .1178416946671133 | 3.4755e-08 | |
a | 3.203172531306698 | 1.4894e-08 | au |
q | 2.825705251906369 | 1.114e-07 | au |
i | 3.837553588144417 | 3.4795e-06 | deg |
node | 61.18441051803447 | 5.9712e-05 | deg |
peri | 300.8140225460182 | 6.1644e-05 | deg |
M | 138.7986315982818 | 1.5686e-05 | deg |
tp | 2458193.169039065675 (2018-Mar-15.66903907) | 9.0117e-05 | TDB |
period | 2093.962617567728 5.73 | 1.4605e-05 3.999e-08 | d yr |
n | .1719228399684437 | 1.1991e-09 | deg/d |
Q | 3.580639810707026 | 1.665e-08 | au |
|
| | Orbit Determination Parameters
Additional Information
|